Wind_Speed
21 22 24 25 25 26 25 25 25 25 27 28 27 27 28 28 24 22 21 21 19 18 17 15 14 13 17 21 24 23 25 29 29 26 21 20 22 23 21 21 18 16 12 7 9
25 25 26 27 28 28 29 28 28 28 28 27 29 30 29 30 28 23 24 23 21 20 19 19 16 16 18 22 26 27 31 30 28 24 23 21 21 24 22 24 21 17 15 15 13
26 27 28 29 31 32 31 32 31 31 31 31 30 30 30 32 30 28 27 27 25 24 22 21 20 19 20 23 27 31 34 29 27 22 24 24 23 24 25 25 22 18 17 18 17
27 28 29 30 31 33 35 35 35 34 34 34 34 34 30 33 23 22 22 25 29 28 26 25 24 23 24 25 27 31 33 29 27 27 23 24 26 27 27 26 24 23 21 20 19
30 31 32 31 32 34 35 36 38 39 37 36 37 38 36 37 28 33 29 24 18 26 28 28 27 25 26 25 27 31 30 30 28 29 28 28 28 29 32 27 26 25 22 20 19
31 34 34 34 36 36 35 36 38 40 42 41 40 40 43 46 31 34 32 30 31 27 27 27 28 28 28 27 29 29 29 30 32 30 30 32 32 34 33 30 30 28 26 22 19
35 36 39 40 40 41 40 38 39 38 40 43 44 46 48 46 35 35 31 30 34 31 27 27 25 28 28 29 29 30 31 29 32 33 33 32 39 45 29 30 32 33 30 28 24
41 42 43 43 44 45 45 44 43 42 39 41 44 49 56 50 38 35 37 35 31 34 34 29 26 26 29 28 27 27 31 34 33 32 31 33 47 35 31 33 34 33 32 31 28
47 48 49 51 53 52 51 50 48 44 40 41 45 48 58 46 34 35 41 38 37 35 37 40 39 35 33 32 29 31 25 30 34 30 27 34 42 33 33 35 34 33 34 34 31
46 47 49 49 50 53 53 53 50 50 45 40 39 40 51 39 33 14 28 40 39 39 37 39 42 43 43 40 31 26 25 29 33 28 29 35 42 35 30 30 34 35 34 35 33
46 48 48 47 49 49 46 47 49 48 40 36 35 38 44 34 14 19 31 23 39 45 47 42 44 57 55 48 42 35 26 32 33 30 31 30 30 31 30 36 36 31 36 37 33
46 47 46 44 38 31 30 28 29 35 55 47 45 50 54 49 54 45 33 27 35 50 48 46 61 52 46 43 43 42 41 37 28 26 24 26 33 32 33 34 37 36 36 35 35
48 46 42 35 27 27 27 25 27 30 40 58 50 49 47 48 60 49 39 39 36 42 54 55 40 51 49 47 45 47 47 42 31 18 19 24 36 36 35 34 36 38 36 37 36
42 35 30 23 25 26 23 25 26 26 26 47 28 25 23 23 44 51 40 42 39 44 43 43 56 29 43 54 50 47 43 42 33 26 15 15 11 32 30 35 38 36 36 34 36
32 28 22 20 25 25 24 24 24 22 5 23 19 15 13 25 30 30 14 49 55 38 33 46 36 52 37 45 48 44 35 35 30 34 29 31 13 34 31 39 36 33 32 31 30
27 24 21 22 23 26 26 25 21 9 6 23 40 40 34 16 25 31 20 37 45 46 44 48 29 36 54 54 33 40 28 22 20 22 9 37 25 34 41 43 33 26 23 28 28
25 23 22 22 21 21 25 23 12 5 15 24 31 29 45 48 47 27 24 28 40 41 47 40 43 34 34 36 37 33 32 4 3 5 10 9 20 42 10 19 25 31 30 26 30
25 24 23 22 23 21 18 23 9 13 28 37 39 42 43 42 30 22 33 35 43 36 20 34 19 47 36 42 41 42 39 15 8 5 3 8 16 20 22 32 35 31 20 32 30
26 25 22 17 18 21 21 24 18 27 26 23 41 39 42 25 39 43 27 40 36 53 22 32 31 12 44 39 39 39 45 40 5 4 2 11 29 39 38 41 33 29 25 23 28
29 26 21 21 17 17 21 28 33 32 32 33 37 28 40 42 33 21 33 18 38 40 57 13 20 35 30 35 36 38 45 26 16 5 4 7 13 22 6 5 7 24 37 29 29
28 26 21 21 21 15 20 27 29 29 28 28 35 36 37 40 38 44 33 45 26 42 44 43 17 12 30 38 47 41 43 34 32 11 8 2 9 17 15 24 26 19 20 24 27
25 24 21 22 24 24 24 24 23 24 28 31 34 39 38 35 42 37 39 19 25 24 40 49 17 21 35 37 40 41 41 45 29 16 14 2 5 3 3 7 14 12 17 20 25
24 26 21 23 28 26 25 28 25 24 27 32 35 37 35 37 33 26 36 30 9 20 22 40 32 23 15 33 26 41 46 56 44 38 28 12 6 16 9 8 3 6 18 17 15
23 25 15 17 22 19 22 25 27 30 31 28 28 25 37 37 37 38 30 31 13 19 18 21 39 14 23 35 34 32 44 46 47 27 35 39 20 9 8 8 9 14 13 15 18
22 26 25 18 24 34 28 26 32 34 31 29 29 27 31 34 36 24 27 26 14 15 22 6 6 29 28 12 31 39 40 43 49 49 28 34 27 20 10 6 8 9 17 17 20
27 28 30 33 32 32 31 36 37 30 28 32 30 28 28 28 24 31 14 8 8 10 12 14 4 13 5 29 21 21 27 39 49 50 47 28 25 26 22 12 8 9 13 19 19
26 26 30 30 37 37 33 32 31 29 27 25 23 21 19 22 22 20 13 7 6 10 6 7 4 8 3 10 14 18 25 26 43 52 48 44 38 26 31 13 12 16 23 26 26
Wind_Direction
330 323 317 313 309 304 300 296 291 287 283 281 278 275 276 274 269 268 266 262 260 258 261 259 253 247 240 237 237 230 231 238 242 245 240 234 228 230 232 227 233 234 225 223 214
341 336 331 326 319 312 305 300 296 291 286 281 278 277 276 274 273 266 262 258 257 256 254 258 252 246 240 238 237 230 234 240 245 248 250 240 231 233 233 230 233 234 233 233 228
352 344 336 329 324 319 315 310 301 294 290 286 281 277 273 274 274 267 260 256 252 256 253 252 251 248 242 240 237 240 240 241 244 248 245 235 232 231 233 232 234 239 242 233 230
355 352 347 338 330 321 316 313 309 305 296 289 284 280 275 272 273 270 267 260 254 248 253 248 246 245 246 244 242 242 246 244 243 243 246 236 232 231 232 233 235 239 244 238 228
349 347 344 342 337 327 318 313 309 306 302 297 289 284 277 267 264 265 260 258 259 252 244 247 243 243 246 248 250 247 247 247 245 243 243 241 233 234 230 230 235 239 244 240 232
341 341 339 338 335 330 322 314 309 305 302 300 297 289 279 270 268 260 257 252 251 253 249 239 242 240 242 244 245 251 247 243 245 243 244 244 238 236 230 229 236 240 242 239 237
334 334 333 333 330 327 323 316 309 304 302 301 297 291 281 277 267 259 261 253 246 240 243 238 233 236 239 243 247 246 251 248 243 243 244 247 244 235 233 234 235 240 240 239 237
330 329 328 326 325 323 320 317 312 307 303 295 291 287 284 281 272 261 256 249 246 238 232 234 236 237 236 240 242 244 247 246 246 242 244 243 250 237 236 237 237 239 242 243 240
328 326 325 323 323 321 317 314 309 304 300 293 284 279 281 289 280 265 248 247 243 240 234 235 241 240 237 233 239 240 240 243 246 246 244 242 253 250 243 238 238 238 238 242 241
321 319 319 319 319 317 315 311 308 304 301 294 283 275 274 283 261 263 244 234 232 234 231 231 233 234 232 224 221 227 234 244 248 250 245 247 251 248 246 243 242 236 235 237 239
320 318 318 318 317 313 311 310 308 308 304 293 272 262 262 253 221 230 244 244 227 227 228 227 226 227 229 232 236 238 246 253 256 256 253 255 258 250 247 245 242 236 235 236 236
320 319 318 318 309 308 309 315 309 309 301 291 278 273 267 257 260 240 242 245 233 228 224 223 231 233 235 235 234 237 241 247 254 256 257 261 262 258 249 242 244 240 236 235 233
323 321 319 315 302 301 305 301 298 301 294 294 302 290 278 264 261 258 238 243 242 233 225 225 233 232 231 230 229 232 236 241 242 259 257 267 267 258 250 249 243 243 238 234 233
323 320 319 314 298 303 301 296 297 304 314 307 337 322 315 287 263 256 241 240 240 239 230 234 229 225 231 231 228 230 234 236 241 248 259 267 286 266 257 251 244 243 242 237 235
322 322 321 311 294 301 297 298 298 309 329 316 320 316 284 283 289 274 268 238 232 227 217 225 233 220 225 232 227 230 234 239 245 246 255 254 268 268 267 253 243 242 245 244 237
319 320 315 309 293 289 297 296 301 302 254 286 302 284 300 337 309 264 254 226 234 225 237 239 242 232 235 232 230 227 222 220 226 233 256 246 231 268 258 257 250 239 240 238 234
314 311 306 305 303 290 290 289 289 206 284 292 311 292 304 303 314 279 238 228 215 210 227 230 227 230 222 220 219 211 197 127 175 188 237 214 222 239 279 254 247 242 234 230 228
310 308 301 299 288 293 293 276 216 265 279 292 299 304 302 301 318 326 246 229 221 215 229 218 213 220 216 214 205 200 188 175 180 198 197 181 237 251 263 257 271 267 260 234 231
304 302 305 303 288 286 284 266 262 271 285 293 304 307 310 302 306 307 311 233 235 216 224 207 226 238 216 211 208 198 200 210 165 150 136 222 253 260 258 262 257 257 254 239 239
303 300 301 302 304 291 276 267 268 271 288 300 294 293 296 307 311 309 304 265 233 232 221 228 222 222 221 208 207 218 206 188 203 150 233 255 256 244 212 193 245 253 240 238 232
300 303 302 299 299 294 266 265 271 275 295 302 301 291 291 296 291 297 288 290 259 234 218 229 202 193 209 198 201 199 194 200 204 206 187 213 251 260 249 242 260 276 213 221 213
300 298 303 297 296 287 284 294 285 299 298 296 292 292 290 301 297 293 288 301 231 231 221 227 242 200 205 203 208 203 202 198 195 205 220 200 216 66 109 241 239 212 192 188 203
300 297 297 290 284 289 290 298 297 300 297 297 290 289 296 295 293 287 292 283 205 218 210 222 219 199 208 212 203 208 205 205 207 212 207 185 206 228 291 327 221 216 203 203 194
288 288 287 291 284 285 294 299 296 298 297 300 293 298 301 293 301 280 266 287 250 246 200 202 220 235 201 213 209 212 208 212 207 207 217 218 216 156 194 200 234 211 200 178 188
278 286 283 272 264 292 292 284 286 295 300 295 297 292 302 301 309 254 259 273 322 300 256 350 33 223 235 179 210 219 215 212 210 219 218 225 208 208 212 128 139 158 189 182 181
268 281 281 282 282 282 280 280 288 293 292 290 288 306 297 292 283 288 302 310 295 315 331 297 333 18 198 232 243 209 217 219 220 226 227 233 229 211 196 220 260 193 176 181 176
276 278 273 276 275 274 281 286 288 298 291 284 283 293 290 301 305 304 306 253 295 314 322 294 316 355 48 350 248 233 222 216 223 227 229 231 227 217 235 243 223 195 172 165 159
Height
3111 3109 3107 3107 3106 3106 3105 3104 3104 3103 3104 3104 3104 3103 3103 3104 3105 3106 3108 3108 3109 3108 3108 3109 3108 3108 3109 3110 3112 3113 3113 3111 3113 3115 3117 3119 3121 3123 3124 3126 3127 3128 3130 3131 3131
3108 3106 3104 3102 3101 3099 3098 3098 3098 3098 3097 3097 3098 3098 3097 3097 3100 3102 3103 3102 3104 3105 3105 3105 3105 3105 3105 3106 3107 3108 3106 3107 3110 3112 3114 3116 3117 3119 3121 3122 3124 3125 3127 3128 3129
3106 3103 3102 3099 3097 3095 3093 3092 3091 3091 3091 3091 3090 3091 3092 3091 3094 3096 3096 3097 3098 3100 3101 3101 3101 3102 3102 3101 3102 3102 3100 3104 3106 3108 3110 3110 3113 3114 3116 3118 3121 3122 3123 3124 3126
3104 3101 3099 3096 3093 3091 3089 3087 3085 3084 3083 3083 3084 3083 3085 3085 3091 3088 3090 3091 3092 3093 3096 3096 3096 3097 3097 3097 3097 3096 3097 3099 3102 3104 3105 3106 3107 3109 3110 3115 3116 3118 3119 3120 3121
3100 3097 3095 3093 3090 3087 3084 3082 3080 3077 3076 3075 3075 3075 3077 3076 3085 3083 3084 3086 3087 3088 3089 3090 3091 3092 3092 3092 3092 3091 3092 3095 3096 3097 3099 3100 3101 3103 3104 3110 3111 3113 3114 3116 3117
3095 3094 3090 3088 3086 3083 3080 3077 3074 3072 3070 3069 3069 3066 3064 3062 3076 3076 3077 3079 3080 3083 3083 3083 3086 3086 3085 3086 3087 3086 3087 3088 3089 3091 3092 3093 3095 3094 3100 3104 3106 3108 3110 3112 3114
3089 3085 3082 3080 3077 3075 3072 3070 3067 3066 3066 3062 3060 3056 3052 3054 3066 3065 3069 3071 3071 3074 3077 3078 3078 3080 3079 3081 3081 3081 3081 3081 3081 3085 3086 3087 3084 3080 3096 3098 3100 3100 3104 3106 3109
3080 3076 3074 3071 3069 3066 3062 3060 3059 3058 3058 3056 3052 3046 3035 3042 3055 3060 3058 3061 3064 3066 3069 3072 3073 3073 3073 3075 3075 3075 3075 3073 3075 3078 3080 3082 3070 3082 3088 3089 3092 3095 3098 3099 3103
3070 3067 3064 3060 3055 3053 3050 3048 3046 3046 3047 3046 3043 3039 3027 3032 3043 3044 3046 3050 3055 3057 3060 3063 3065 3066 3067 3068 3070 3068 3064 3066 3070 3072 3073 3072 3068 3078 3081 3081 3084 3087 3090 3092 3095
3068 3064 3059 3054 3049 3043 3038 3035 3033 3032 3033 3035 3033 3035 3023 3029 3032 3034 3034 3038 3042 3047 3050 3050 3053 3053 3055 3057 3053 3059 3062 3065 3065 3066 3065 3064 3061 3069 3074 3073 3076 3078 3081 3083 3087
3058 3053 3048 3043 3038 3033 3028 3024 3023 3023 3022 3025 3024 3019 3017 3020 3022 3024 3029 3030 3032 3033 3034 3039 3041 3028 3036 3047 3053 3058 3059 3059 3060 3062 3060 3059 3057 3059 3065 3064 3066 3069 3073 3076 3080
3047 3043 3038 3032 3028 3025 3023 3022 3018 3013 2997 3009 3012 3005 3003 3007 3001 3013 3020 3022 3021 3019 3026 3030 3013 3030 3039 3044 3047 3050 3051 3052 3056 3055 3055 3054 3050 3053 3055 3056 3057 3062 3064 3067 3072
3035 3031 3027 3024 3021 3021 3020 3018 3015 3012 3002 2987 2995 2992 2995 2996 2985 2993 3010 3010 3011 3012 3011 3011 3011 3025 3030 3033 3037 3038 3040 3046 3053 3052 3051 3049 3042 3043 3047 3048 3050 3052 3056 3059 3063
3025 3022 3020 3018 3017 3015 3015 3014 3012 3009 3002 2987 2989 2984 2982 2981 2973 2985 2997 3001 3003 2999 3008 3007 3009 3014 3018 3020 3027 3028 3035 3042 3047 3051 3049 3047 3036 3032 3036 3039 3040 3044 3047 3051 3055
3018 3017 3015 3012 3010 3011 3011 3010 3009 3009 3008 2993 2990 2985 2980 2981 2979 2977 2986 2987 2982 2993 2998 2984 2994 3003 3008 3006 3020 3022 3033 3039 3043 3045 3045 3042 3042 3016 3026 3028 3032 3037 3041 3044 3048
3013 3012 3010 3009 3008 3007 3006 3005 3007 3009 3002 2991 2988 2982 2977 2971 2970 2974 2975 2974 2979 2986 2986 2987 2991 2997 2997 3006 3016 3023 3030 3035 3039 3042 3041 3028 3035 3005 3013 3015 3025 3031 3034 3036 3038
3008 3007 3006 3004 3004 3002 3002 3002 3004 3002 2998 2988 2983 2981 2976 2972 2965 2966 2969 2968 2968 2973 2972 2979 2983 2986 2993 3000 3010 3014 3021 3031 3038 3038 3021 3021 3024 3000 3005 3009 3013 3020 3024 3027 3029
3003 3002 3001 3000 2999 2998 2999 2998 2994 2993 2989 2984 2981 2977 2977 2972 2967 2960 2961 2957 2961 2965 2965 2970 2975 2973 2978 2984 2990 2999 3009 3009 3022 3024 3015 3017 3003 2991 3000 3007 3008 3012 3018 3019 3022
2997 2997 2997 2996 2993 2993 2995 2992 2988 2987 2985 2983 2977 2972 2965 2969 2971 2962 2951 2953 2954 2956 2958 2961 2963 2965 2971 2979 2987 2994 2998 3002 3007 3010 3011 3002 2991 2990 2997 2999 3004 3007 3009 3013 3015
2991 2990 2992 2990 2989 2988 2988 2985 2983 2982 2983 2981 2975 2972 2961 2960 2964 2962 2956 2946 2948 2949 2956 2954 2957 2961 2967 2976 2982 2982 2988 3000 3002 3009 3012 2992 2988 2983 2988 2990 2994 2994 2997 3004 3007
2986 2984 2986 2984 2984 2984 2981 2978 2979 2980 2980 2977 2968 2965 2963 2958 2960 2957 2952 2941 2941 2941 2947 2950 2949 2954 2960 2961 2958 2970 2978 2984 2989 2989 2990 2995 2979 2982 2985 2986 2987 2988 2989 2994 2999
2982 2981 2981 2980 2981 2977 2975 2975 2976 2972 2972 2970 2963 2957 2958 2958 2952 2950 2944 2941 2934 2935 2938 2939 2941 2944 2949 2954 2960 2965 2968 2975 2980 2983 2980 2980 2979 2978 2979 2980 2982 2984 2987 2991 2996
2976 2975 2976 2975 2973 2972 2971 2970 2968 2967 2965 2962 2957 2950 2953 2952 2951 2943 2940 2933 2927 2928 2931 2934 2936 2938 2947 2952 2953 2955 2958 2961 2967 2972 2972 2976 2975 2977 2976 2978 2981 2984 2986 2990 2994
2973 2970 2971 2968 2967 2967 2967 2965 2962 2961 2957 2955 2952 2950 2944 2943 2944 2936 2936 2934 2926 2926 2923 2926 2926 2924 2928 2932 2944 2947 2952 2957 2962 2965 2962 2964 2975 2976 2978 2979 2980 2983 2986 2989 2992
2968 2964 2965 2965 2963 2962 2962 2960 2954 2954 2953 2951 2948 2948 2945 2935 2932 2930 2931 2929 2926 2923 2922 2924 2920 2921 2927 2932 2939 2942 2947 2952 2957 2956 2964 2962 2970 2976 2978 2979 2981 2982 2984 2987 2989
2961 2960 2958 2956 2954 2954 2953 2951 2951 2947 2948 2943 2944 2943 2941 2938 2936 2931 2927 2924 2924 2923 2923 2923 2923 2922 2924 2929 2931 2935 2940 2947 2951 2953 2958 2961 2967 2974 2976 2978 2981 2982 2983 2985 2987
2954 2953 2950 2946 2945 2945 2943 2943 2942 2945 2940 2937 2939 2938 2935 2934 2930 2927 2925 2925 2923 2921 2924 2924 2922 2923 2927 2927 2925 2931 2935 2939 2942 2947 2951 2954 2963 2970 2973 2977 2980 2981 2983 2984 2987